Starlink 32138

operational
NORAD ID: 60255 Int'l Des: 2024-131 Owner: SPXS Country: US Constellation: starlink
LEOCIRCULAR

关于 Starlink 32138

正在加载描述...

实时位置

正在加载3D地球...

即将过境

高度历史

Altitude vs Time

uPlot chart will show altitude changes over time

两行轨道根数

1 60255U 24131A 25351.24187715 -.00000172 00000-0 63202-5 0 9999
2 60255 53.1611 75.5273 0001121 86.5180 273.5949 15.30200907 79393
Epoch: Dec 17, 2025 • Age: 10 hours

当前状态

高度 489.9 km
速度 7.62 km/s
星下点 -42.08°S, 34.36°W
发射日期 Jul 27, 2024
运行时间 1.3 years
类型 internet

技术详情

分类 Payload
质量 730.00 kg
干质量 700.00 kg
总质量 730.00 kg
长度 0.30 m
直径 4.10 m
跨度 29.00 m
形状 Box + pan
制造商 SPXS
平台类型 Starlink V2M
阶段状态 In Orbit
所有者/国家 SPXS/US

大型星座

Loading constellations...